Back to catalog

SL-12 DEB

LostHEO
NORAD 44871·DEBRIS·🇷🇺 Russia

Launched Sep 2, 2010 from Baikonur Cosmodrome

Loading…

Next Passes (next 24 hours)

TLE

StaleSource: Space-Track

Epoch: Jan 12, 2023, 23:31 UTC

1 44871U 10041AL  23012.97997031 -.00001564  00000-0 -87810-2 0  9997
2 44871  65.5561 224.0600 5690253 332.3866   6.4769  4.20153138 51183

Track SL-12 DEB in real time with AllMySat

Download on the App Store